TimeADT,TemperatureF,Dew PointF,Humidity,Sea Level PressureIn,VisibilityMPH,Wind Direction,Wind SpeedMPH,Gust SpeedMPH,PrecipitationIn,Events,Conditions,WindDirDegrees,DateUTC
12:00 AM,61,59,91,29.88,6,ESE,18.4,,,,Overcast,110,2012-10-11 03:00:00
12:00 AM,60.8,59.0,94,29.88,6.0,ESE,17.3,-,N/A,,Overcast,110,2012-10-11 03:00:00
12:29 AM,60.8,59.0,94,29.86,6.0,ESE,19.6,-,N/A,,Overcast,110,2012-10-11 03:29:00
12:30 AM,60.8,59.0,94,29.86,6.0,ESE,19.6,-,N/A,,Overcast,110,2012-10-11 03:30:00
12:32 AM,60.8,59.0,94,29.86,6.0,ESE,19.6,-,N/A,,Overcast,110,2012-10-11 03:32:00
12:33 AM,60.8,59.0,94,29.86,6.0,ESE,19.6,-,N/A,,Overcast,110,2012-10-11 03:33:00
12:35 AM,60.8,59.0,94,29.86,6.0,ESE,20.7,-,N/A,,Overcast,110,2012-10-11 03:35:00
12:47 AM,60.8,59.0,94,29.85,6.0,ESE,17.3,24.2,N/A,,Overcast,110,2012-10-11 03:47:00
12:50 AM,60.8,59.0,94,29.85,6.0,ESE,19.6,-,N/A,,Overcast,110,2012-10-11 03:50:00
12:53 AM,60.8,59.0,94,29.85,6.0,ESE,17.3,-,N/A,,Overcast,110,2012-10-11 03:53:00
1:00 AM,60.8,59.0,94,29.85,6.0,ESE,18.4,-,N/A,,Overcast,110,2012-10-11 04:00:00
1:16 AM,60.8,59.0,94,29.84,6.0,ESE,17.3,-,N/A,,Overcast,110,2012-10-11 04:16:00
1:20 AM,62.6,59.0,88,29.84,6.0,ESE,17.3,-,N/A,,Overcast,110,2012-10-11 04:20:00
1:28 AM,62.6,59.0,88,29.83,6.0,ESE,17.3,-,N/A,,Overcast,110,2012-10-11 04:28:00
1:42 AM,62.6,59.0,88,29.83,5.0,ESE,19.6,-,N/A,,Overcast,110,2012-10-11 04:42:00
2:00 AM,62.6,60.8,94,29.82,5.0,East,16.1,-,N/A,,Overcast,100,2012-10-11 05:00:00
2:14 AM,62.6,60.8,94,29.81,3.0,East,16.1,-,N/A,,Overcast,100,2012-10-11 05:14:00
2:17 AM,62.6,60.8,94,29.81,2.5,East,13.8,20.7,N/A,,Overcast,100,2012-10-11 05:17:00
2:36 AM,62.6,60.8,94,29.79,1.4,ESE,11.5,21.9,N/A,,Overcast,120,2012-10-11 05:36:00
3:00 AM,62.6,60.8,94,29.79,1.0,ESE,16.1,-,N/A,,Overcast,120,2012-10-11 06:00:00
3:22 AM,62.6,60.8,94,29.77,1.2,ESE,15.0,-,N/A,,Overcast,120,2012-10-11 06:22:00
3:36 AM,62.6,60.8,94,29.76,1.4,SE,13.8,-,N/A,,Overcast,130,2012-10-11 06:36:00
3:40 AM,62.6,62.6,100,29.76,1.4,SE,13.8,-,N/A,,Overcast,130,2012-10-11 06:40:00
3:43 AM,62.6,60.8,94,29.76,1.5,SE,13.8,-,N/A,,Overcast,130,2012-10-11 06:43:00
4:00 AM,62.6,60.8,94,29.75,1.6,SE,12.7,-,N/A,,Overcast,130,2012-10-11 07:00:00
4:01 AM,62.6,62.6,100,29.75,1.6,SE,13.8,-,N/A,,Overcast,130,2012-10-11 07:01:00
4:10 AM,62.6,62.6,100,29.75,1.8,SE,11.5,-,N/A,,Overcast,130,2012-10-11 07:10:00
4:15 AM,62.6,62.6,100,29.74,1.8,SE,12.7,-,N/A,,Overcast,140,2012-10-11 07:15:00
4:20 AM,62.6,62.6,100,29.74,2.0,SE,12.7,-,N/A,,Overcast,140,2012-10-11 07:20:00
4:25 AM,62.6,62.6,100,29.74,1.4,SE,12.7,-,N/A,,Overcast,140,2012-10-11 07:25:00
4:28 AM,62.6,62.6,100,29.74,0.8,SE,11.5,-,N/A,,Overcast,140,2012-10-11 07:28:00
4:29 AM,62.6,62.6,100,29.74,0.6,SE,12.7,-,N/A,,Overcast,140,2012-10-11 07:29:00
4:33 AM,62.6,62.6,100,29.74,0.4,SE,13.8,-,N/A,,Unknown,140,2012-10-11 07:33:00
4:40 AM,62.6,62.6,100,29.73,0.1,SE,12.7,-,N/A,,Unknown,140,2012-10-11 07:40:00
5:00 AM,62.6,62.6,100,29.73,0.1,SSE,11.5,-,N/A,,Unknown,150,2012-10-11 08:00:00
6:00 AM,64,62,93,29.70,0,South,12.7,,,,,170,2012-10-11 09:00:00
6:00 AM,64.4,62.6,94,29.70,0.1,South,13.8,-,N/A,,Unknown,170,2012-10-11 09:00:00
7:00 AM,64.4,62.6,94,29.69,0.1,South,15.0,-,N/A,,Unknown,170,2012-10-11 10:00:00
7:08 AM,64.4,62.6,94,29.68,0.5,South,18.4,-,N/A,,Unknown,170,2012-10-11 10:08:00
7:13 AM,66.2,64.4,94,29.67,1.1,South,16.1,21.9,N/A,Rain,Light Rain,180,2012-10-11 10:13:00
7:23 AM,64.4,62.6,94,29.68,1.4,South,25.3,31.1,N/A,Rain,Light Rain,190,2012-10-11 10:23:00
7:24 AM,64.4,62.6,94,29.68,1.8,SSW,23.0,31.1,N/A,Rain,Light Rain,200,2012-10-11 10:24:00
7:34 AM,62.6,60.8,94,29.67,1.8,South,16.1,25.3,N/A,Rain,Rain,190,2012-10-11 10:34:00
7:42 AM,62.6,60.8,94,29.66,1.4,SW,13.8,21.9,N/A,Rain,Rain,220,2012-10-11 10:42:00
7:53 AM,62.6,60.8,94,29.67,3.0,SSW,12.7,19.6,N/A,Rain,Rain,210,2012-10-11 10:53:00
7:58 AM,64.4,62.6,94,29.67,4.0,SSW,16.1,-,N/A,,Unknown,210,2012-10-11 10:58:00
8:00 AM,66.2,62.6,88,29.67,4.0,SSW,16.1,-,N/A,,Unknown,210,2012-10-11 11:00:00
8:15 AM,66.2,64.4,94,29.66,5.0,SSW,18.4,-,N/A,,Mostly Cloudy,200,2012-10-11 11:15:00
8:22 AM,66.2,64.4,94,29.67,5.0,SSW,19.6,-,N/A,,Scattered Clouds,210,2012-10-11 11:22:00
9:00 AM,66,63,87,29.68,5,SW,24.2,,,,,220,2012-10-11 12:00:00
9:00 AM,66.2,62.6,88,29.68,5.0,SW,24.2,29.9,N/A,,Scattered Clouds,220,2012-10-11 12:00:00
10:00 AM,64.4,59.0,83,29.70,6.0,SW,26.5,-,N/A,,Clear,230,2012-10-11 13:00:00
11:00 AM,64.4,57.2,77,29.71,7.0,WSW,29.9,38.0,N/A,,Unknown,240,2012-10-11 14:00:00
12:00 PM,64,55,64,29.73,6,WSW,33.4,,,,,250,2012-10-11 15:00:00
12:00 PM,64.4,55.4,73,29.73,6.0,WSW,31.1,46.0,N/A,,Unknown,250,2012-10-11 15:00:00
12:45 PM,62.6,50.0,63,29.73,6.0,West,31.1,41.4,N/A,,Overcast,260,2012-10-11 15:45:00
12:59 PM,62.6,50.0,63,29.72,6.0,West,33.4,41.4,N/A,,Overcast,260,2012-10-11 15:59:00
1:00 PM,62.6,50.0,63,29.73,6.0,West,31.1,41.4,N/A,,Overcast,260,2012-10-11 16:00:00
1:07 PM,62.6,51.8,68,29.73,6.0,West,26.5,42.6,N/A,,Mostly Cloudy,260,2012-10-11 16:07:00
2:00 PM,60.8,44.6,55,29.75,6.0,West,34.5,48.3,N/A,,Unknown,270,2012-10-11 17:00:00
3:00 PM,60,44,44,29.79,6,West,33.4,,,,,270,2012-10-11 18:00:00
3:00 PM,59.0,44.6,59,29.79,6.0,West,35.7,42.6,N/A,,Unknown,270,2012-10-11 18:00:00
4:00 PM,59.0,44.6,59,29.82,7.0,West,27.6,41.4,N/A,,Scattered Clouds,270,2012-10-11 19:00:00
5:00 PM,57.2,41.0,55,29.85,8.0,West,31.1,40.3,N/A,,Scattered Clouds,270,2012-10-11 20:00:00
6:00 PM,57,42,46,29.89,7,West,27.6,,,,,270,2012-10-11 21:00:00
6:00 PM,57.2,42.8,59,29.89,8.0,West,27.6,38.0,N/A,,Scattered Clouds,270,2012-10-11 21:00:00
7:00 PM,57.2,39.2,51,29.93,8.0,West,29.9,39.1,N/A,,Scattered Clouds,270,2012-10-11 22:00:00
8:00 PM,57.2,41.0,55,29.96,8.0,West,20.7,33.4,N/A,,Scattered Clouds,270,2012-10-11 23:00:00
9:00 PM,57,42,46,29.99,9,WNW,20.7,,,,,290,2012-10-12 00:00:00
9:00 PM,57.2,42.8,59,29.99,9.0,West,21.9,32.2,N/A,,Scattered Clouds,280,2012-10-12 00:00:00
10:00 PM,55.4,39.2,54,30.02,9.0,West,18.4,27.6,N/A,,Scattered Clouds,280,2012-10-12 01:00:00
11:00 PM,55.4,37.4,51,30.06,9.0,WNW,23.0,31.1,N/A,,Partly Cloudy,290,2012-10-12 02:00:00